Dewpoint
73 73 74 74 74 74 74 73 73 73 73 73 73 73 73 72 72 71 72 72 71 70 69 68 69 68 66 67 66 66 66 66 67 67 68 66 66 66 66 66 65 67 66 65 65 65 65 65 64 66 66 63 64 65 64 65 65 65 65 65 64 65 63 62 61 61 62 64 64 64 65 64 62 62 61 63 63 63 65 64 64 64 63 63 63
74 73 73 73 73 73 73 73 73 73 72 72 72 72 72 72 72 72 71 71 71 70 69 68 69 68 66 66 66 66 66 66 66 66 67 67 66 67 66 65 65 66 66 65 65 65 65 65 65 65 66 64 64 64 63 64 65 64 64 64 64 64 65 63 62 61 61 61 62 64 64 65 63 64 62 61 62 64 64 63 64 64 63 63 62
74 73 73 73 73 73 74 73 74 73 72 72 72 72 72 72 72 71 72 71 71 70 69 68 68 67 67 66 66 66 66 66 66 66 66 67 66 66 66 65 65 65 66 65 65 65 65 65 64 64 65 64 65 65 65 64 64 63 63 64 63 63 64 64 62 61 61 60 62 62 63 63 63 62 63 64 64 64 63 64 64 64 65 64 63
74 74 73 73 73 73 73 74 73 73 72 72 72 72 72 72 72 72 72 71 71 70 70 69 68 68 67 67 66 66 66 66 66 66 66 66 66 66 66 66 65 65 65 65 65 65 65 65 65 64 65 63 64 64 64 64 64 63 62 63 63 63 63 64 64 61 61 60 61 62 62 62 63 63 64 65 64 63 63 63 64 64 64 64 63
73 74 73 73 73 73 73 73 73 73 73 72 72 72 72 72 72 72 72 71 71 70 70 70 68 68 67 67 66 66 66 66 66 66 66 66 66 66 66 66 66 65 65 65 67 65 65 65 65 64 64 64 64 64 64 63 64 64 63 63 63 63 63 63 63 63 61 60 60 61 63 63 63 63 64 63 63 63 64 64 63 63 63 63 64
73 74 73 73 73 73 73 73 73 73 73 72 72 71 71 72 72 72 72 71 71 71 70 70 69 68 67 67 67 66 66 66 66 66 66 66 66 66 66 66 66 66 65 65 65 65 64 65 65 64 64 63 63 64 64 64 64 63 63 63 64 64 63 63 63 62 61 61 60 61 61 62 61 62 63 63 62 61 61 62 63 64 64 63 63
73 74 74 73 73 73 73 73 73 73 73 72 72 72 71 71 72 72 72 71 71 70 70 70 70 69 68 67 67 66 66 66 66 66 67 67 66 66 66 66 66 66 66 65 65 65 64 65 65 65 64 64 64 64 64 64 64 64 64 63 63 63 63 63 63 62 62 62 62 62 62 62 62 61 62 63 63 62 61 60 60 62 62 62 61
73 73 74 73 73 73 73 73 73 73 73 72 72 72 71 71 72 72 72 72 71 71 70 70 70 69 69 68 67 67 67 66 66 66 66 67 67 66 66 66 66 66 66 65 65 65 65 65 65 65 65 64 64 64 64 64 64 63 63 63 63 63 62 62 62 62 61 61 60 60 60 60 59 61 62 60 59 60 62 62 61 60 61 61 62
72 73 73 73 72 73 73 73 73 73 73 73 72 72 71 71 71 72 73 72 72 71 71 70 70 69 69 68 67 67 67 67 67 66 66 67 66 67 67 66 66 65 65 65 65 65 64 64 64 65 66 68 68 67 67 67 64 63 63 63 63 63 62 62 62 61 60 61 61 60 59 59 59 58 58 57 57 58 59 61 61 60 60 61 61
72 72 73 73 72 73 73 73 73 74 74 73 73 72 72 71 71 72 73 72 72 71 71 71 70 69 69 68 68 67 67 68 66 63 64 66 66 67 67 66 65 64 64 64 64 64 64 64 65 68 68 69 69 68 66 67 67 64 62 63 63 63 62 61 61 61 60 59 59 59 58 58 57 57 57 57 58 59 58 58 57 58 58 59 59
71 72 72 73 73 73 73 73 73 73 74 73 73 73 72 72 72 72 73 73 72 72 72 71 70 69 69 68 67 67 67 67 63 62 62 64 66 66 66 66 65 64 63 64 63 64 64 64 66 68 68 69 68 69 69 68 67 67 66 66 66 64 63 62 61 61 60 60 60 59 59 58 57 57 57 58 59 59 58 58 59 58 57 57 56
70 71 72 73 73 73 73 73 73 73 73 74 73 73 73 73 72 73 73 73 72 72 72 71 70 70 69 68 68 67 67 64 61 61 62 62 64 66 66 65 65 63 63 63 64 64 64 66 65 65 65 65 65 65 68 68 67 66 66 65 65 65 64 63 61 61 60 60 59 59 58 58 57 57 58 58 58 58 58 58 58 58 57 56 56
70 71 72 73 74 74 74 73 73 73 73 74 74 74 73 73 73 73 73 73 73 72 72 71 71 70 69 68 67 67 67 63 60 60 61 61 62 65 65 65 64 63 63 63 64 64 66 65 64 65 65 66 67 66 65 66 67 66 65 65 65 63 62 62 62 63 61 60 60 59 59 58 57 58 59 60 59 57 57 58 58 57 57 57 56
69 70 72 73 74 74 74 74 74 73 74 74 74 74 74 73 74 74 74 74 73 72 72 72 71 70 69 68 68 67 67 61 59 59 60 60 61 64 65 65 64 63 64 64 65 66 66 64 64 64 66 66 66 67 66 65 64 64 64 64 64 66 63 60 60 60 61 62 61 60 60 60 59 59 61 60 59 58 57 57 57 56 56 56 56
69 70 72 73 74 74 74 74 74 74 74 74 75 75 74 74 74 74 74 74 73 73 72 72 71 70 69 68 67 67 67 60 58 58 58 58 60 63 65 65 64 63 64 64 65 64 65 66 65 65 65 65 65 67 67 66 66 66 65 65 65 64 64 64 63 63 62 62 62 61 61 61 61 60 60 62 60 59 58 57 56 55 55 55 56
69 70 71 73 74 75 75 75 75 75 75 75 75 75 75 75 74 74 73 74 74 73 73 72 71 69 69 68 67 67 67 59 58 58 57 58 59 64 64 64 64 64 65 65 65 64 63 64 66 65 65 65 65 65 68 67 66 65 64 63 63 64 64 64 62 62 63 62 62 61 61 61 61 62 62 61 59 58 59 59 57 56 55 54 53
70 70 71 73 74 75 75 75 76 75 75 75 75 75 75 74 74 73 73 73 73 72 71 70 69 69 68 68 67 67 65 59 57 56 57 57 59 64 64 64 64 64 64 63 63 63 63 64 66 65 64 64 63 61 63 69 66 65 64 63 63 62 62 63 60 59 58 56 57 59 59 58 56 56 55 55 56 56 55 54 54 54 52 52 52
71 71 72 74 75 76 76 76 76 75 75 75 74 74 74 74 74 73 72 72 72 72 70 69 68 68 67 67 66 65 64 58 55 55 56 56 60 65 64 64 62 62 62 63 63 62 62 66 68 65 64 64 61 60 62 66 65 64 63 62 61 61 61 61 61 62 59 57 56 55 55 55 55 54 54 53 53 54 54 52 52 53 53 54 52
72 72 73 75 76 76 76 76 76 75 75 75 74 74 74 74 73 72 71 71 70 70 69 68 68 67 67 66 66 64 64 59 53 54 55 55 60 64 63 62 61 60 61 61 62 63 63 66 68 67 65 64 60 59 60 65 64 62 62 61 61 60 60 61 60 59 59 59 58 59 60 59 59 58 59 56 55 56 56 54 54 54 53 53 53
73 73 74 76 76 76 76 76 75 75 74 74 74 74 73 73 73 72 71 70 68 68 67 67 66 65 65 64 64 64 64 61 58 53 54 54 57 64 63 61 60 59 60 60 61 62 64 66 66 63 62 60 57 56 57 59 61 62 62 60 59 59 59 58 59 59 58 58 57 58 59 59 59 59 59 60 61 61 60 58 56 55 55 54 55
74 74 76 76 76 76 76 75 75 74 74 74 73 73 72 72 72 71 69 68 67 66 66 65 64 64 64 64 63 64 64 61 59 52 52 53 55 59 61 60 60 59 60 61 61 62 64 66 66 62 58 55 54 53 54 57 60 61 60 59 59 59 56 57 58 60 57 57 58 58 57 58 57 57 57 56 57 56 57 56 59 58 57 56 50
75 76 76 76 75 75 75 74 74 74 73 73 72 71 71 71 70 69 68 67 66 66 65 65 64 63 63 63 63 63 64 62 59 53 52 52 53 55 60 60 60 59 60 62 63 64 65 66 66 60 54 54 53 51 51 54 56 58 58 55 52 54 56 57 56 56 56 57 56 56 56 55 55 55 55 55 55 57 53 52 51 51 51 50 49
76 76 76 75 74 74 74 73 73 73 72 71 71 70 70 69 68 68 68 67 66 65 65 65 64 64 64 63 62 62 63 64 59 58 52 50 51 52 54 57 57 62 61 62 63 65 66 66 65 57 52 50 49 49 50 51 53 55 51 50 52 54 56 56 56 57 55 55 56 55 55 55 55 55 55 54 54 54 51 50 50 50 51 52 52
76 75 74 74 74 73 73 72 72 72 71 70 70 69 69 68 68 68 67 67 66 65 65 65 64 63 63 63 63 65 64 62 60 58 56 52 50 50 51 53 58 62 64 64 65 66 65 63 58 52 49 45 47 49 50 52 54 49 49 51 53 54 55 55 55 56 55 55 55 55 55 55 55 53 54 55 53 52 52 52 51 51 50 50 50
75 74 74 73 73 72 72 72 72 71 70 70 69 68 68 67 66 66 66 66 66 65 65 64 63 63 63 63 65 66 65 64 63 61 57 53 51 50 51 51 54 56 63 63 65 63 58 50 47 48 47 46 47 49 50 51 51 49 49 51 56 55 55 55 55 55 54 54 55 55 55 56 52 51 53 53 54 52 51 50 50 51 51 51 51
73 73 73 72 72 71 71 71 71 70 70 69 68 68 67 66 66 66 66 66 65 65 64 64 63 63 64 65 66 65 64 63 61 59 60 57 55 52 52 52 56 59 58 57 54 51 49 48 48 48 48 49 52 54 54 54 51 52 52 54 55 55 56 55 55 55 54 55 55 55 55 52 52 53 54 52 50 49 50 51 51 52 51 50 48
71 71 71 71 70 70 70 70 70 69 69 68 68 67 66 66 66 65 65 65 65 65 64 64 64 64 65 66 66 65 64 63 61 59 58 57 56 56 54 56 56 55 57 55 54 53 51 52 52 52 53 53 55 56 56 56 54 52 53 54 54 55 55 55 55 55 55 54 55 55 53 51 52 52 51 50 50 51 52 53 51 48 48 48 47
71 71 70 69 69 70 70 71 69 68 68 67 67 66 66 66 65 65 65 65 65 65 64 64 64 64 65 66 65 65 64 63 62 61 60 58 57 56 57 59 57 58 56 56 55 57 56 55 53 55 55 54 54 55 56 57 56 54 53 54 54 56 57 58 58 55 54 55 54 52 52 52 51 50 51 50 49 50 50 50 49 47 49 48 45
69 69 69 68 68 68 68 67 65 61 58 55 52 51 60 66 64 60 57 55 62 65 65 65 65 66 66 66 65 65 64 64 63 59 61 56 58 59 59 59 59 57 57 54 57 58 56 55 55 55 56 56 54 54 55 56 57 56 55 55 55 55 55 55 55 55 54 54 54 52 53 50 48 49 50 48 49 48 47 47 48 48 45 44 43
68 68 68 68 67 67 66 64 63 61 59 57 56 53 49 46 57 61 58 53 50 49 59 65 66 66 66 65 63 65 64 65 58 53 51 51 52 53 54 53 54 57 54 54 57 56 56 55 55 54 56 56 55 55 54 54 55 56 56 56 56 55 55 55 54 54 54 55 53 51 49 49 47 48 48 47 45 45 45 48 45 44 43 43 44
67 67 67 66 66 66 65 64 62 61 60 59 59 57 56 53 43 43 48 49 46 45 47 52 57 61 64 62 53 48 51 52 51 49 49 49 49 50 50 49 51 51 50 56 58 57 56 56 56 56 56 56 56 55 55 54 54 55 55 56 56 55 54 53 52 51 50 49 49 49 48 47 47 47 44 45 45 45 45 45 45 46 45 45 43
66 66 66 65 65 65 65 64 63 62 61 60 59 59 58 56 56 47 43 44 44 42 42 45 50 54 56 57 56 56 50 48 48 48 48 48 48 48 47 47 48 48 47 52 57 57 58 57 57 56 56 55 55 56 56 55 54 55 55 55 55 54 52 48 50 49 49 48 47 47 48 47 46 46 45 45 46 43 41 41 42 43 44 44 44
65 65 65 65 65 66 65 65 64 63 62 61 61 60 59 59 57 56 54 45 42 42 42 41 42 45 48 49 51 51 48 46 46 46 45 45 43 43 44 45 45 45 48 56 57 57 57 57 55 54 54 53 53 52 52 50 50 51 50 51 51 49 48 49 49 48 48 47 47 47 46 46 45 45 44 43 41 38 40 41 42 43 43 43 45
65 64 64 65 66 66 66 65 64 64 64 63 62 61 60 60 58 57 57 57 56 51 45 42 41 42 41 41 42 42 43 43 44 44 43 43 42 43 45 46 43 47 52 57 57 56 56 55 53 53 54 52 51 53 53 52 52 50 49 49 51 51 50 51 47 45 45 46 44 44 43 42 42 38 38 38 40 42 43 44 42 41 41 42 40
66 68 69 68 66 66 65 65 65 65 64 64 63 62 61 60 59 59 58 58 58 57 56 52 44 40 45 43 40 41 41 42 42 42 42 42 43 43 47 54 54 54 54 54 56 54 55 54 53 54 53 52 52 52 52 52 51 49 49 49 48 48 48 47 46 45 44 43 43 42 42 41 39 40 39 39 41 42 42 41 39 41 40 39 38
66 67 68 68 66 66 66 66 66 65 65 64 64 64 63 61 60 60 58 59 59 57 54 50 47 45 42 39 39 40 40 41 41 41 42 42 43 48 55 55 54 54 54 54 54 54 54 53 53 54 53 52 52 50 50 51 51 50 49 49 49 48 47 48 48 46 46 45 43 43 41 39 41 41 41 42 42 42 39 40 41 41 41 38 40
66 66 66 66 66 66 66 66 65 65 64 64 64 64 64 62 61 61 60 60 59 56 53 50 50 51 50 48 44 40 40 40 41 41 42 43 45 52 56 56 55 55 54 54 53 53 52 54 54 53 53 51 49 49 50 50 50 50 51 51 49 48 48 48 48 49 44 44 43 43 41 40 40 42 43 40 41 39 39 43 41 39 39 41 44
65 65 65 66 66 66 65 65 64 63 64 64 65 64 63 63 62 61 61 60 57 55 53 53 54 53 52 50 51 48 44 41 43 44 44 45 48 52 53 56 57 54 54 53 53 53 53 55 53 52 52 52 50 49 48 49 50 49 48 47 50 50 50 48 47 45 47 45 44 43 44 44 44 42 43 39 38 38 39 41 37 36 38 42 41
65 62 62 63 63 65 65 64 63 64 64 64 64 63 62 62 62 61 60 58 57 56 55 55 55 55 53 51 51 50 50 52 52 52 52 52 52 53 53 54 55 55 54 54 54 55 54 51 52 52 52 52 51 49 50 50 49 49 48 47 45 45 46 42 41 42 44 45 45 43 43 43 43 42 39 38 38 38 37 37 37 39 39 38 39
63 63 61 61 62 62 63 64 63 63 63 63 62 62 62 61 61 60 59 58 57 57 56 56 56 55 53 52 51 51 53 54 54 54 53 53 53 53 53 52 53 54 56 54 54 52 52 52 52 53 52 50 51 52 49 48 48 49 47 45 45 44 41 41 40 41 40 40 44 43 41 43 41 39 37 38 38 39 38 38 40 40 38 39 41
62 62 63 61 61 62 63 62 62 62 62 62 62 61 60 61 61 60 59 58 58 57 57 57 57 55 54 51 49 50 54 54 54 54 53 53 53 52 52 52 53 54 54 52 51 51 51 52 53 53 51 50 51 50 49 50 48 46 45 43 43 43 41 41 43 43 44 43 41 42 41 39 39 37 37 38 42 41 40 42 40 37 38 41 41
62 61 61 62 62 62 61 61 61 62 62 63 61 62 61 61 60 60 60 60 59 58 57 58 56 55 51 48 46 46 53 54 54 53 53 53 53 52 53 53 54 55 52 53 52 52 52 52 51 52 52 50 49 49 48 46 44 41 41 42 40 40 40 39 40 41 42 41 41 40 39 41 41 42 42 43 39 39 40 39 38 39 40 41 41
62 62 63 64 64 63 64 65 64 63 62 61 61 64 64 60 60 59 59 60 59 59 58 57 56 55 52 48 48 47 52 54 56 54 53 53 53 53 54 54 55 54 52 50 50 51 52 50 47 48 50 50 49 43 40 40 41 41 38 39 39 38 37 37 37 41 41 41 41 42 41 42 42 40 41 42 41 41 39 39 40 40 40 40 41
62 63 64 63 63 63 63 63 63 62 61 62 63 62 61 60 60 59 59 59 58 59 58 57 55 54 52 49 48 48 51 54 55 54 53 54 53 54 54 54 54 52 50 50 50 50 48 46 46 47 49 49 46 44 43 43 41 39 39 37 39 42 39 40 39 39 40 39 40 40 40 41 42 41 41 42 40 39 40 41 42 40 40 41 41
64 65 63 62 62 63 62 62 61 61 61 61 61 62 62 62 61 59 58 58 59 58 57 56 54 53 52 51 50 50 51 53 55 56 54 53 54 54 53 53 51 50 49 50 50 48 48 47 47 46 47 49 49 45 42 42 40 37 36 35 36 38 37 37 38 38 39 39 39 39 40 40 38 37 38 38 41 41 42 41 40 42 42 42 39
63 62 62 62 61 60 60 61 61 61 61 60 60 60 60 60 59 58 57 57 58 57 57 55 54 53 52 51 51 52 52 53 55 55 55 54 54 53 53 52 51 51 51 50 49 48 46 45 45 46 45 45 43 42 41 42 40 38 38 38 39 38 39 39 39 39 38 38 37 36 37 38 37 37 41 40 41 43 42 41 41 42 42 40 38
62 61 62 61 61 61 60 60 60 60 60 60 59 58 58 57 56 57 58 57 57 58 56 55 55 54 54 53 53 53 54 54 55 54 54 55 53 53 51 51 50 50 50 48 47 46 46 45 44 45 45 43 42 42 42 42 40 40 40 38 38 39 38 39 39 38 37 37 38 35 35 37 37 38 39 41 42 41 42 42 42 43 40 39 38
61 61 60 60 59 59 59 60 59 60 58 57 57 56 56 56 56 56 56 55 56 57 56 56 55 55 55 55 55 55 55 55 55 55 55 55 55 53 51 50 50 49 48 46 47 46 45 45 45 45 45 46 46 44 41 40 39 38 37 37 37 37 39 39 38 36 35 35 36 37 37 37 37 38 40 40 40 41 41 42 44 40 39 39 39
60 60 60 60 60 59 59 57 57 56 56 56 56 55 55 54 54 54 54 53 54 55 56 56 56 56 56 56 55 55 55 54 53 55 53 53 54 53 51 50 50 48 47 47 46 47 46 47 46 46 46 46 45 42 40 40 37 36 35 34 36 38 35 37 36 33 31 37 38 36 35 34 34 36 38 39 39 40 42 43 40 40 39 40 39
61 61 59 59 59 58 59 60 58 57 56 56 55 55 55 54 53 54 53 53 52 52 54 55 56 56 56 55 54 54 53 53 53 53 53 54 54 54 52 51 50 48 47 47 47 47 47 47 46 47 47 45 43 42 42 40 37 35 34 33 35 33 33 33 32 33 36 35 34 33 33 35 36 35 36 37 38 40 42 42 42 41 41 40 40
59 59 59 58 58 58 58 57 56 55 55 55 54 54 54 54 54 54 53 52 51 51 51 52 53 55 55 54 54 54 53 53 53 53 52 52 53 53 53 52 51 50 49 48 48 48 47 47 46 45 45 45 44 43 42 39 37 35 35 35 33 33 33 33 31 30 35 34 32 33 35 36 36 36 36 36 38 41 44 44 43 41 40 40 41